Weather Roundup
Issued by NWS Chicago, IL

Home | Current Version | Previous Version | Graphics & Text | Print | Product List | Glossary On
Versions: 1 2 3 4 5 6 7 8 9 10 11 12 13 14 15 16 17 18 19 20 21 22 23 24 25 26 27 28 29 30 31 32 33 34 35 36 37 38 39 40 41 42 43 44 45 46 47 48 49 50
000
NZUS59 KLOT 021000
HRRLOT

CHICAGO AREA WEATHER ROUNDUP
NATIONAL WEATHER SERVICE CHICAGO/ROMEOVILLE IL
400 AM CST MON MAR 02 2015

NOTE: "FAIR" INDICATES FEW OR NO CLOUDS BELOW 12,000 FEET WITH NO
SIGNIFICANT WEATHER AND/OR OBSTRUCTIONS TO VISIBILITY.

* THESE STATIONS ARE NOT UNDER NWS QUALITY CONTROL. THEY ALSO MAY NOT
  REPORT WEATHER SUCH AS PRECIPITATION OR FOG.

ILZ005-006-012>014-019>023-021100-
NORTHEAST ILLINOIS

CITY           SKY/WX    TMP DP  RH WIND       PRES   REMARKS
OHARE          CLEAR     15   7  70 W10       30.41S WCI   2
MIDWAY         CLEAR     18   9  68 W8        30.43R WCI   8
AURORA         PTCLDY     8   2  76 NW7       30.44R WCI  -3
WAUKEGAN       CLEAR     14   8  77 VRB5      30.41R WCI   6
DUPAGE AIRPORT CLEAR     16   8  71 W10       30.42R WCI   4
WHEELING       CLEAR     15   7  70 NW3       30.44R
NORTHERLY IS     N/A     19  10  68 NW10        N/A  WCI   8
$$

WIZ051-052-058>065-066-070>072-021100-
SOUTHEAST WISCONSIN

CITY           SKY/WX    TMP DP  RH WIND       PRES   REMARKS
MILWAUKEE      CLEAR     17   6  62 W7        30.39R WCI   8
KENOSHA*       CLEAR     14   6  70 SW7       30.40R WCI   4
RACINE*        CLEAR     14   6  70 W7        30.41R WCI   4
$$

INZ001>003-010>013-019-020-021100-
NORTHWEST INDIANA

CITY           SKY/WX    TMP DP  RH WIND       PRES   REMARKS
GARY*          NOT AVBL
MICHIGAN CITY* NOT AVBL
RENSSELAER*    NOT AVBL
$$

LMZ740>746-021100-
SOUTHERN LAKE MICHIGAN

STATION/POSITION TIME  SKY/WX   TEMP WIND        PRES    VSBY
                                AIR  DIR/SP/G
                 (UTC)          (F)  (DEG/KT/KT) (MB)    (MI)
HARRISON CRIB    0900            20  280/ 18/ 22   N/A
BURNHAM HARBOR   1000            19  280/  9/ 14   N/A
CALUMET HARBOR   0900            18  260/  6/  9 1028.8R
BURNS HARBOR     NOT AVBL
MICHIGAN CITY    0900            19  250/ 13/ 15   N/A
$$

ABBREVIATIONS USED IN REMARKS
   TC - TEMPERATURE IN CELSIUS
  WCI - WIND CHILL INDEX
   HX - HEAT INDEX
  VSB - VISIBILITY
$$


USA.gov is the U.S. government's official web portal to all federal, state and local government web resources and services.